Temperature
18 19 19 19 18 18 18 18 18 18 18 18 18 18 18 18 18 18 18 18 18 18 18 18 18 18 18 18 18 19 19 19 19 19 19 18 18 18 18 19 18 18 18
18 19 19 18 18 18 18 18 18 18 18 18 18 18 18 18 18 18 18 18 18 18 18 18 18 18 18 18 18 18 18 18 18 18 18 18 18 18 18 18 18 18 18
18 18 18 18 18 18 18 18 18 18 18 18 18 18 18 18 18 18 18 18 18 18 18 18 18 18 18 18 18 18 18 18 18 18 18 18 18 18 18 18 18 18 18
18 18 18 18 18 18 18 18 18 18 18 18 18 18 18 18 18 18 18 18 18 18 18 18 18 18 18 18 18 18 18 18 18 18 18 18 18 18 18 18 18 18 18
18 18 18 18 18 18 18 18 18 18 18 18 17 17 17 17 17 17 17 17 17 17 17 17 17 17 18 18 18 18 18 18 18 18 18 18 18 18 18 18 18 18 18
18 18 18 18 18 18 18 18 18 17 17 17 17 17 17 17 17 17 17 17 17 17 17 17 17 17 17 17 18 18 18 18 18 18 18 18 18 18 18 18 18 18 18
18 18 18 18 18 18 18 18 17 17 17 17 17 17 17 17 17 17 17 17 17 17 17 17 17 17 17 17 17 18 18 18 18 18 18 18 18 18 18 18 18 18 18
18 18 18 18 18 18 18 17 17 17 17 17 17 17 17 17 17 17 17 17 17 17 16 17 17 17 17 17 17 17 18 18 18 18 18 18 18 18 18 18 18 18 18
19 19 19 18 18 18 18 17 17 17 17 17 17 17 17 17 16 16 16 16 16 16 16 16 17 17 17 17 17 17 17 18 18 18 18 18 18 18 18 18 18 18 18
19 19 19 18 18 18 18 18 17 17 17 17 17 17 17 16 16 16 16 16 16 16 16 16 16 17 17 17 17 17 17 17 18 18 18 18 18 18 18 18 18 18 18
20 19 19 19 18 18 18 18 17 17 17 17 17 16 16 16 16 16 16 16 16 16 16 16 16 17 17 17 17 17 17 17 17 17 17 17 18 18 18 18 18 18 18
20 20 19 19 19 18 18 18 17 17 17 17 16 17 16 16 16 16 16 16 16 16 16 16 16 16 17 17 17 17 17 17 17 17 17 17 17 18 18 18 18 18 18
20 20 20 19 19 19 18 18 17 17 17 17 17 17 17 16 16 16 16 16 16 16 16 16 16 16 16 17 17 17 17 17 17 17 17 17 17 17 17 18 18 18 18
20 20 20 20 19 19 18 18 18 17 17 17 17 17 16 16 16 16 16 16 16 16 16 16 16 16 16 17 17 17 17 17 17 17 17 17 17 17 17 17 18 18 18
20 20 20 20 19 19 19 18 18 17 17 17 17 17 16 16 16 16 16 16 16 16 16 16 16 16 16 16 16 16 16 17 17 17 17 17 17 17 17 17 17 18 18
21 20 20 20 19 19 19 18 18 17 17 17 17 17 16 16 16 16 16 15 15 15 15 16 16 16 16 16 16 16 16 16 16 16 16 17 17 17 17 17 17 17 17
21 20 20 20 19 19 18 18 18 17 17 17 17 16 16 16 16 16 15 15 15 15 15 15 15 16 16 16 16 16 16 16 16 16 16 16 16 17 17 17 17 17 17
21 21 20 20 19 18 18 18 18 17 17 17 16 16 16 16 16 15 15 15 15 15 15 15 15 15 15 15 15 16 16 16 16 16 16 16 16 16 17 17 17 17 17
21 21 20 19 19 18 18 18 17 17 17 16 16 16 16 15 15 15 15 15 15 15 15 15 15 15 15 15 15 15 16 16 16 16 16 16 16 16 16 17 17 17 17
21 21 20 19 19 18 18 18 17 17 17 16 16 16 15 15 15 15 15 15 15 14 14 14 14 15 15 15 15 15 15 16 16 16 16 16 16 16 16 16 17 17 17
21 21 20 19 19 18 18 17 17 17 17 16 16 15 15 15 15 15 15 15 14 14 14 14 14 14 14 15 15 15 16 16 16 16 16 16 16 16 16 16 16 16 17
21 20 20 19 19 18 18 17 17 17 16 16 16 15 15 15 15 15 14 14 14 14 14 14 14 14 14 14 15 15 15 15 15 16 16 16 16 16 16 16 16 16 16
21 20 20 19 19 18 18 17 17 17 16 16 16 16 15 15 15 15 14 14 14 14 14 14 14 14 14 14 14 15 15 15 15 15 15 16 16 16 16 16 16 16 16
21 20 20 19 19 18 18 18 17 17 16 16 16 16 15 15 15 15 14 14 14 14 14 14 14 14 14 14 14 14 15 15 15 15 15 15 15 15 16 16 16 16 16
20 20 20 19 19 19 18 18 17 17 16 16 16 16 15 15 15 15 15 14 14 14 14 14 14 14 14 14 14 14 14 15 15 15 15 15 15 15 15 15 15 15 15
20 20 20 19 19 19 18 18 17 17 17 16 16 16 16 15 15 15 15 14 14 14 14 14 14 14 14 14 14 14 14 14 14 15 15 15 15 15 15 15 15 15 15
Wind_Speed
10 12 12 12 12 11 11 11 11 10 10 10 9 9 8 8 8 8 7 7 6 6 6 6 6 6 6 6 6 7 7 7 6 6 5 4 4 4 5 6 7 6 6
14 14 13 13 12 12 12 12 11 11 10 10 9 9 8 8 7 7 6 6 6 5 5 5 5 5 5 6 6 6 6 7 7 6 6 5 2 2 4 6 7 6 6
15 14 13 13 12 12 12 12 11 11 11 10 9 9 8 7 7 6 6 5 5 5 4 4 5 5 4 5 6 6 6 7 7 9 9 5 1 2 4 5 6 6 6
15 14 14 13 13 12 12 12 11 11 10 10 9 8 7 6 6 6 5 5 4 4 4 4 4 4 4 4 4 5 6 7 9 10 8 3 2 5 4 5 6 6 6
14 15 15 14 13 12 12 11 11 10 10 9 8 7 7 6 5 5 5 4 4 4 4 4 4 4 4 4 4 4 5 7 9 10 7 3 5 5 4 4 6 5 5
15 16 14 14 13 12 11 11 10 9 9 8 7 7 6 6 6 5 5 5 4 4 4 4 4 4 4 4 4 4 5 7 9 8 5 1 4 4 4 4 4 5 5
14 15 15 14 13 12 11 10 9 9 8 7 6 6 5 5 5 5 5 5 4 5 5 5 5 4 4 4 4 4 6 8 9 8 4 1 5 4 3 3 3 4 5
14 13 15 14 13 12 11 10 9 8 7 6 6 5 4 3 3 3 3 4 4 4 4 5 5 5 5 5 5 5 6 8 8 7 3 1 5 4 3 2 2 3 4
12 12 12 14 13 12 11 10 8 7 6 5 3 2 1 1 1 1 1 2 3 4 4 5 5 5 5 6 6 6 7 8 8 8 4 2 4 5 3 2 2 2 3
9 10 10 11 12 12 11 10 8 6 5 3 2 2 3 5 5 4 1 1 1 3 4 5 6 6 7 8 8 9 9 8 9 7 2 3 6 5 3 1 1 2 2
7 7 8 8 8 9 10 10 9 7 6 5 5 5 5 5 3 4 4 4 1 3 5 6 8 9 9 10 11 11 9 8 7 3 2 6 6 4 2 1 1 1 2
6 6 6 7 6 6 6 8 5 5 5 4 2 3 2 3 4 2 3 4 4 6 7 9 11 11 10 8 9 11 8 8 5 1 3 6 5 4 2 1 0 1 1
7 5 5 5 6 5 3 4 2 3 3 1 2 2 2 4 4 3 0 3 5 6 5 4 8 7 4 3 2 4 5 3 0 2 4 5 5 3 2 1 1 1 1
7 6 6 5 5 5 4 2 2 2 2 1 3 5 3 2 2 2 2 3 3 3 2 3 3 4 3 2 2 1 2 1 1 2 5 6 5 4 3 2 2 2 2
7 6 6 4 4 5 4 1 3 2 2 2 3 3 3 2 3 3 2 2 3 4 3 3 3 4 4 3 3 2 2 2 1 1 4 7 5 4 4 3 3 2 2
8 7 6 4 4 4 4 3 2 1 2 2 2 3 4 3 2 2 3 3 2 3 3 3 3 3 2 2 2 2 2 2 1 0 3 5 5 5 5 5 4 3 3
8 8 7 5 4 5 4 2 2 1 3 2 2 4 5 4 3 3 4 3 3 5 5 3 4 3 3 2 2 1 1 2 1 1 0 4 5 6 6 5 5 4 4
8 8 7 5 5 5 4 2 2 2 3 2 3 5 6 6 6 3 4 4 4 4 3 3 3 3 3 3 2 2 1 1 1 1 1 2 4 4 7 7 6 5 5
7 9 8 6 5 5 4 2 2 3 2 2 4 4 6 7 7 4 2 3 5 3 4 5 3 3 3 3 3 1 1 1 1 1 1 1 2 4 6 7 8 7 6
7 8 8 7 5 5 3 2 2 2 2 2 3 3 4 5 6 4 3 3 4 3 4 4 4 3 2 3 3 2 1 1 1 1 2 1 1 2 5 6 7 7 7
7 7 7 7 6 4 3 2 2 2 1 2 2 3 2 3 5 3 3 3 3 3 4 4 4 4 3 3 2 2 2 1 1 0 0 1 1 1 3 4 4 6 7
6 6 6 6 6 6 3 2 2 2 0 2 1 2 3 4 4 4 4 3 3 2 3 4 3 3 3 3 2 1 2 2 2 0 0 0 0 1 1 2 4 5 7
6 6 5 5 6 6 5 3 2 2 1 1 1 1 1 2 2 3 4 4 4 3 2 3 3 3 3 3 2 1 1 1 2 1 0 0 1 1 0 0 1 3 7
6 5 5 5 5 6 6 4 2 1 1 1 1 1 0 1 1 2 3 3 3 3 3 3 3 2 2 3 3 2 1 0 0 2 2 1 1 1 1 1 2 2 4
6 5 4 5 5 6 5 5 2 1 1 1 1 1 0 0 1 0 1 2 3 2 2 3 3 3 2 2 2 2 2 2 1 0 1 1 1 0 1 1 1 2 3
6 5 4 4 5 5 4 4 4 3 1 1 1 0 1 1 1 1 1 1 2 2 2 2 2 2 1 2 2 2 2 1 1 1 1 1 0 1 1 1 1 1 3
Wind_Direction
111 112 116 108 103 99 96 94 91 91 89 87 84 79 73 71 69 61 53 49 50 46 39 37 39 36 33 29 25 20 17 11 7 1 353 355 9 23 25 21 13 15 30
114 113 113 108 103 98 95 94 91 91 88 85 83 79 72 67 62 56 52 45 41 36 32 27 30 30 26 21 14 9 7 0 351 336 323 317 331 37 36 28 23 20 22
114 116 112 106 102 98 96 93 92 90 86 83 81 79 73 65 58 49 43 38 34 29 25 20 21 15 9 9 7 2 357 349 336 322 310 292 200 95 58 38 28 20 18
115 115 110 108 103 99 96 93 90 87 84 81 80 77 70 63 55 46 37 27 20 16 11 7 5 359 353 357 355 346 344 337 326 317 312 331 57 93 71 42 29 23 22
109 108 109 109 104 100 96 93 89 85 82 79 75 70 64 59 51 43 36 24 13 8 7 5 358 349 347 349 350 344 337 328 320 310 303 1 78 91 73 44 30 25 25
110 110 114 111 107 102 99 96 92 87 81 75 72 68 61 52 44 36 29 22 13 6 357 351 348 341 338 337 337 334 325 320 313 302 309 8 96 94 76 48 30 28 26
115 117 120 116 113 109 105 101 95 88 82 77 71 66 58 47 38 31 25 19 14 6 359 350 341 330 325 314 311 314 313 308 292 286 293 104 112 103 83 55 33 29 23
120 122 125 126 123 118 111 104 98 90 83 77 70 64 55 42 33 26 22 14 6 356 350 346 338 326 315 301 292 291 294 296 303 311 315 102 119 116 96 63 37 28 20
128 133 136 141 136 130 123 117 111 104 95 88 82 72 43 308 299 328 38 24 2 347 336 330 320 312 300 288 276 275 277 282 287 286 296 102 127 121 103 69 39 22 15
132 136 139 143 143 144 140 139 137 136 137 145 162 217 250 255 242 229 174 113 354 327 314 307 298 293 284 276 266 261 264 272 265 268 264 116 115 111 99 70 34 14 2
121 128 135 137 137 139 143 146 162 167 176 191 206 229 252 257 239 193 142 146 217 275 278 278 279 279 274 267 258 251 253 252 257 250 113 109 113 115 107 72 23 13 352
131 136 134 128 131 130 120 134 158 153 164 192 180 171 259 342 349 18 154 200 232 254 262 261 267 272 265 251 242 231 240 246 246 177 123 128 125 126 121 95 39 30 6
136 126 121 124 124 120 116 120 127 130 129 135 39 73 30 5 348 7 75 210 241 252 264 266 259 262 263 252 245 222 241 260 223 91 118 128 136 139 140 129 111 90 60
134 138 130 129 126 121 106 117 141 101 100 78 34 14 38 21 336 358 345 9 338 337 343 326 298 306 315 316 306 282 313 324 87 132 139 142 147 154 161 158 145 122 102
138 135 119 124 108 111 113 151 98 87 65 90 76 349 25 35 3 358 345 5 345 350 347 332 322 336 345 349 341 342 358 344 21 70 140 152 154 164 171 167 154 139 124
148 140 124 116 105 100 108 96 88 92 135 76 60 2 29 34 7 357 352 359 351 339 328 321 323 336 333 327 326 337 338 322 5 64 160 152 162 173 173 164 154 152 145
147 136 127 127 106 88 76 62 91 83 77 73 64 18 17 30 10 18 357 359 348 342 343 347 339 339 322 326 330 320 340 317 316 301 216 169 169 181 176 167 152 149 153
139 130 127 127 112 99 80 46 47 57 50 52 62 38 8 16 22 28 1 349 341 352 352 346 342 343 341 344 334 326 341 316 291 273 295 217 172 169 171 169 157 147 148
140 133 131 123 116 112 110 111 65 60 48 41 55 45 10 7 12 27 350 334 359 7 354 344 4 353 341 336 313 306 342 334 332 333 321 302 147 145 153 164 160 154 151
139 133 129 126 121 115 105 94 87 64 45 63 68 68 19 3 14 13 340 10 8 4 351 345 352 342 317 303 315 343 332 284 5 13 328 350 49 130 146 151 160 161 157
135 131 131 137 133 120 102 93 91 87 31 75 66 62 22 25 18 8 359 2 7 6 351 357 352 340 333 335 341 334 325 286 121 153 305 332 1 68 128 143 159 160 158
130 129 133 132 130 123 126 120 122 115 116 114 82 60 27 29 18 4 2 353 0 357 2 352 348 346 327 337 343 349 342 354 354 168 192 200 66 54 57 162 169 156 155
135 137 138 136 134 130 133 114 86 76 348 91 113 98 50 33 29 14 355 351 347 359 359 337 355 355 323 324 354 19 0 327 314 318 298 96 88 76 323 42 123 125 146
143 140 142 136 136 134 133 120 126 144 107 103 95 114 202 131 59 23 352 339 342 352 359 355 19 344 333 325 330 330 308 74 41 333 332 16 85 85 40 38 68 78 129
136 138 133 129 122 119 125 142 169 120 86 79 77 102 299 170 170 118 10 334 337 346 359 5 356 349 344 334 327 327 336 338 284 191 302 317 4 34 110 85 79 66 102
126 125 120 118 120 126 143 159 168 157 161 131 109 351 285 248 222 186 209 314 336 349 342 343 329 335 328 330 326 329 341 341 332 354 304 291 245 241 135 111 114 115 113
Height
1503 1503 1505 1506 1507 1508 1509 1510 1511 1513 1514 1515 1516 1517 1518 1519 1519 1520 1520 1521 1521 1522 1522 1523 1523 1523 1523 1523 1524 1524 1524 1524 1524 1525 1525 1525 1524 1524 1524 1523 1523 1523 1522
1503 1504 1506 1507 1508 1509 1510 1511 1513 1513 1515 1515 1516 1517 1518 1519 1519 1520 1521 1521 1521 1522 1522 1523 1523 1523 1523 1523 1524 1524 1524 1524 1525 1525 1525 1525 1525 1524 1524 1524 1523 1523 1522
1504 1506 1507 1508 1509 1510 1512 1513 1514 1514 1515 1516 1517 1517 1518 1519 1519 1520 1520 1521 1521 1522 1522 1522 1523 1523 1523 1523 1523 1524 1524 1524 1525 1525 1525 1525 1525 1525 1524 1524 1523 1523 1522
1506 1507 1508 1509 1510 1511 1512 1514 1514 1515 1516 1516 1517 1518 1518 1519 1519 1519 1520 1520 1521 1521 1522 1522 1522 1522 1523 1523 1523 1523 1524 1524 1525 1525 1526 1526 1525 1525 1525 1524 1523 1523 1522
1507 1508 1509 1510 1511 1512 1513 1514 1515 1516 1516 1517 1517 1518 1518 1518 1519 1519 1519 1520 1520 1520 1521 1521 1521 1522 1522 1522 1522 1523 1523 1524 1525 1525 1525 1526 1525 1525 1525 1524 1523 1523 1522
1508 1509 1511 1512 1513 1514 1514 1515 1516 1516 1517 1517 1518 1518 1518 1518 1518 1518 1519 1519 1519 1520 1520 1520 1520 1521 1521 1521 1522 1522 1523 1523 1524 1525 1525 1525 1525 1525 1524 1524 1523 1523 1522
1510 1511 1512 1513 1514 1515 1515 1516 1517 1517 1517 1518 1518 1518 1518 1518 1518 1518 1518 1518 1519 1519 1519 1519 1519 1519 1520 1520 1521 1521 1522 1522 1523 1524 1524 1525 1525 1525 1524 1524 1523 1523 1522
1511 1512 1513 1514 1515 1516 1516 1517 1517 1518 1518 1518 1518 1518 1518 1518 1518 1518 1518 1518 1518 1518 1518 1518 1518 1518 1519 1519 1519 1520 1521 1521 1522 1523 1523 1524 1524 1524 1524 1524 1523 1523 1522
1513 1513 1514 1515 1516 1517 1517 1518 1518 1518 1518 1519 1519 1519 1519 1519 1518 1518 1518 1518 1517 1517 1517 1517 1517 1517 1517 1518 1518 1519 1519 1520 1521 1522 1523 1523 1523 1523 1523 1523 1523 1523 1522
1514 1515 1516 1517 1517 1518 1518 1519 1519 1519 1519 1519 1519 1519 1519 1519 1519 1518 1518 1518 1517 1517 1516 1516 1516 1516 1516 1517 1517 1518 1518 1519 1520 1521 1521 1522 1522 1523 1523 1523 1523 1522 1522
1516 1517 1518 1519 1519 1520 1520 1520 1520 1520 1520 1520 1520 1520 1520 1519 1519 1519 1518 1518 1517 1517 1516 1516 1515 1515 1516 1516 1516 1517 1517 1518 1519 1520 1520 1521 1521 1522 1522 1522 1522 1522 1522
1516 1518 1519 1520 1520 1521 1522 1521 1521 1521 1521 1521 1521 1521 1520 1520 1520 1520 1519 1518 1517 1516 1516 1515 1515 1515 1515 1515 1515 1516 1516 1517 1518 1519 1519 1520 1521 1521 1521 1521 1522 1522 1522
1517 1518 1520 1521 1521 1522 1522 1522 1522 1522 1522 1522 1522 1522 1521 1521 1520 1520 1519 1518 1517 1516 1516 1515 1515 1514 1515 1515 1515 1515 1516 1517 1517 1517 1518 1519 1519 1520 1520 1521 1521 1521 1521
1517 1519 1520 1521 1522 1522 1522 1523 1523 1523 1523 1523 1522 1522 1521 1520 1520 1519 1519 1518 1517 1517 1516 1515 1515 1515 1515 1514 1514 1514 1515 1515 1516 1516 1517 1517 1518 1519 1519 1520 1520 1521 1521
1517 1519 1520 1521 1522 1523 1523 1524 1524 1523 1523 1523 1522 1522 1521 1520 1520 1519 1518 1517 1517 1516 1515 1515 1514 1514 1514 1513 1513 1513 1514 1514 1515 1515 1515 1516 1517 1518 1518 1519 1520 1520 1521
1517 1519 1520 1521 1522 1523 1523 1524 1523 1524 1523 1523 1522 1522 1521 1520 1520 1518 1518 1517 1516 1515 1515 1514 1514 1513 1513 1513 1513 1513 1513 1513 1514 1514 1515 1515 1516 1517 1518 1519 1519 1520 1520
1516 1518 1520 1521 1522 1523 1523 1524 1524 1524 1523 1523 1522 1522 1521 1520 1519 1518 1517 1517 1516 1515 1514 1514 1513 1513 1513 1513 1512 1512 1512 1512 1513 1513 1514 1514 1515 1516 1517 1518 1519 1519 1520
1516 1518 1520 1521 1522 1522 1523 1523 1524 1523 1523 1523 1522 1521 1521 1520 1519 1518 1517 1516 1515 1515 1514 1513 1512 1512 1512 1511 1511 1511 1511 1511 1512 1512 1513 1513 1514 1515 1516 1517 1518 1519 1520
1515 1517 1519 1521 1522 1522 1522 1523 1523 1523 1523 1523 1522 1521 1520 1519 1519 1517 1516 1516 1515 1514 1513 1513 1512 1511 1511 1510 1510 1510 1511 1511 1511 1511 1512 1512 1514 1514 1515 1516 1517 1519 1520
1515 1516 1518 1520 1521 1522 1522 1523 1522 1522 1522 1522 1521 1520 1520 1519 1518 1517 1517 1516 1515 1514 1513 1512 1511 1511 1510 1510 1510 1510 1510 1510 1510 1510 1511 1512 1513 1514 1515 1515 1517 1518 1519
1514 1516 1518 1519 1520 1521 1521 1522 1522 1522 1522 1522 1521 1520 1520 1519 1518 1517 1516 1515 1514 1513 1512 1511 1511 1510 1510 1510 1509 1509 1509 1509 1509 1510 1510 1511 1512 1513 1514 1515 1516 1517 1519
1513 1516 1517 1519 1520 1520 1521 1521 1522 1522 1522 1521 1520 1520 1519 1518 1518 1517 1516 1515 1514 1513 1512 1511 1510 1510 1510 1510 1510 1509 1509 1510 1510 1510 1510 1511 1511 1512 1513 1514 1515 1517 1518
1513 1515 1516 1518 1519 1519 1520 1521 1521 1521 1521 1521 1520 1520 1519 1518 1518 1517 1516 1515 1514 1513 1512 1511 1510 1510 1509 1510 1510 1510 1510 1510 1510 1510 1510 1510 1511 1512 1512 1514 1515 1516 1517
1512 1514 1516 1517 1518 1519 1519 1520 1520 1521 1521 1521 1520 1519 1519 1518 1518 1517 1515 1515 1514 1513 1512 1511 1510 1510 1509 1509 1510 1510 1511 1511 1511 1510 1511 1510 1511 1511 1512 1513 1514 1515 1517
1511 1513 1515 1516 1517 1518 1518 1519 1520 1520 1520 1520 1520 1519 1519 1518 1518 1517 1515 1514 1513 1512 1512 1511 1510 1509 1509 1509 1509 1510 1510 1510 1510 1510 1510 1511 1511 1511 1512 1512 1513 1514 1516
1510 1512 1514 1515 1516 1517 1518 1518 1519 1519 1519 1519 1519 1519 1518 1518 1517 1516 1515 1514 1513 1512 1511 1511 1510 1509 1509 1509 1509 1509 1509 1510 1510 1510 1510 1510 1510 1511 1511 1512 1512 1513 1515